When you browse on this site, cookies collect data to enhance your experience and personalize the content and advertising you see.
Visit our Privacy Policy to learn more. By continuing to use the site, you agree to this use of cookies and data.
  • Em Portugal
  • Lista de países
  • Para 7 dias
  • Temperatura da água
  • Mapas de satélite
  • Mapa do tempo
  • Widgets de tempo
  • user-avatar
    Iniciar Sessão

    Previsão horária em Staroe Shaygovo

    Hoje, 19 Junho, Quarta-feira

    Tempo Temperatura Precipitação Vento Pressão Humidade
    00:00 +16°C° 0.1 mm 2 m/s 745 mmHg 91%
    01:00 +16°C° 0 mm 2 m/s 746 mmHg 92%
    02:00 +15°C° 0 mm 2 m/s 746 mmHg 92%
    03:00 +15°C° 0 mm 2 m/s 746 mmHg 94%
    04:00 +14°C° 0 mm 3 m/s 746 mmHg 92%
    05:00 +16°C° 0 mm 3 m/s 746 mmHg 91%
    06:00 +17°C° 0 mm 3 m/s 746 mmHg 90%
    07:00 +19°C° 0 mm 4 m/s 746 mmHg 84%
    08:00 +20°C° 0 mm 4 m/s 747 mmHg 78%
    09:00 +22°C° 0 mm 4 m/s 747 mmHg 72%
    10:00 +22°C° 0.3 mm 4 m/s 747 mmHg 68%
    11:00 +23°C° 0.3 mm 4 m/s 747 mmHg 65%
    12:00 +25°C° 0.3 mm 4 m/s 747 mmHg 61%
    13:00 +25°C° 0.3 mm 4 m/s 747 mmHg 62%
    14:00 +25°C° 0.3 mm 4 m/s 747 mmHg 63%
    15:00 +26°C° 0.3 mm 4 m/s 747 mmHg 64%
    16:00 +25°C° 0.1 mm 4 m/s 747 mmHg 67%
    17:00 +25°C° 0.1 mm 3 m/s 747 mmHg 70%
    18:00 +25°C° 0.1 mm 2 m/s 747 mmHg 73%
    19:00 +23°C° 0 mm 2 m/s 747 mmHg 76%
    20:00 +20°C° 0 mm 2 m/s 748 mmHg 80%
    21:00 +18°C° 0 mm 2 m/s 748 mmHg 83%
    22:00 +18°C° 0 mm 2 m/s 748 mmHg 84%
    23:00 +17°C° 0 mm 2 m/s 748 mmHg 85%

    Amanhã, 20 Junho, Quinta-feira

    Tempo Temperatura Precipitação Vento Pressão Humidade
    00:00 +17°C° 0 mm 2 m/s 748 mmHg 86%
    01:00 +16°C° 0 mm 2 m/s 748 mmHg 87%
    02:00 +16°C° 0 mm 2 m/s 749 mmHg 89%
    03:00 +16°C° 0 mm 2 m/s 749 mmHg 90%
    04:00 +17°C° 0 mm 2 m/s 749 mmHg 89%
    05:00 +17°C° 0 mm 2 m/s 749 mmHg 87%
    06:00 +18°C° 0 mm 2 m/s 749 mmHg 86%
    07:00 +20°C° 0 mm 2 m/s 750 mmHg 80%
    08:00 +23°C° 0 mm 2 m/s 750 mmHg 74%
    09:00 +24°C° 0 mm 3 m/s 750 mmHg 68%
    10:00 +25°C° 0 mm 3 m/s 750 mmHg 63%
    11:00 +26°C° 0 mm 3 m/s 750 mmHg 58%
    12:00 +27°C° 0 mm 3 m/s 750 mmHg 52%
    13:00 +27°C° 0 mm 3 m/s 750 mmHg 51%
    14:00 +28°C° 0 mm 3 m/s 750 mmHg 50%
    15:00 +28°C° 0 mm 2 m/s 750 mmHg 49%
    16:00 +28°C° 0 mm 2 m/s 750 mmHg 55%
    17:00 +27°C° 0 mm 1 m/s 750 mmHg 60%
    18:00 +27°C° 0 mm 1 m/s 750 mmHg 65%
    19:00 +25°C° 0 mm 1 m/s 750 mmHg 68%
    20:00 +23°C° 0 mm 1 m/s 750 mmHg 72%
    21:00 +19°C° 0 mm 0 m/s 750 mmHg 75%
    22:00 +20°C° 0 mm 1 m/s 750 mmHg 76%
    23:00 +20°C° 0 mm 1 m/s 751 mmHg 77%

    Depois de amanhã, 21 Junho, Sexta-feira

    Tempo Temperatura Precipitação Vento Pressão Humidade
    00:00 +19°C° 0 mm 1 m/s 751 mmHg 79%
    01:00 +18°C° 0 mm 1 m/s 751 mmHg 80%
    02:00 +18°C° 0 mm 1 m/s 751 mmHg 82%
    03:00 +16°C° 0 mm 1 m/s 751 mmHg 83%
    04:00 +18°C° 0 mm 1 m/s 751 mmHg 82%
    05:00 +19°C° 0 mm 1 m/s 752 mmHg 80%
    06:00 +20°C° 0 mm 1 m/s 752 mmHg 79%
    07:00 +22°C° 0 mm 1 m/s 752 mmHg 74%
    08:00 +24°C° 0 mm 1 m/s 752 mmHg 69%
    09:00 +25°C° 0 mm 2 m/s 752 mmHg 64%
    10:00 +26°C° 0 mm 2 m/s 752 mmHg 58%
    11:00 +27°C° 0 mm 2 m/s 752 mmHg 53%
    12:00 +28°C° 0 mm 2 m/s 752 mmHg 48%
    13:00 +28°C° 0 mm 2 m/s 752 mmHg 48%
    14:00 +28°C° 0 mm 2 m/s 752 mmHg 47%
    15:00 +28°C° 0 mm 2 m/s 752 mmHg 47%
    16:00 +28°C° 0 mm 2 m/s 752 mmHg 52%
    17:00 +27°C° 0 mm 1 m/s 752 mmHg 56%
    18:00 +27°C° 0 mm 1 m/s 752 mmHg 61%
    19:00 +25°C° 0 mm 1 m/s 752 mmHg 63%
    20:00 +24°C° 0 mm 1 m/s 752 mmHg 64%
    21:00 +22°C° 0 mm 1 m/s 752 mmHg 66%
    22:00 +21°C° 0 mm 1 m/s 752 mmHg 69%
    23:00 +20°C° 0 mm 1 m/s 752 mmHg 72%

    22 Junho, Sábado

    Tempo Temperatura Precipitação Vento Pressão Humidade
    00:00 +18°C° 0 mm 0 m/s 752 mmHg 74%
    01:00 +19°C° 0 mm 1 m/s 752 mmHg 75%
    02:00 +19°C° 0 mm 1 m/s 752 mmHg 77%
    03:00 +19°C° 0 mm 1 m/s 752 mmHg 78%
    04:00 +20°C° 0 mm 1 m/s 752 mmHg 77%
    05:00 +21°C° 0 mm 1 m/s 752 mmHg 76%
    06:00 +22°C° 0 mm 1 m/s 752 mmHg 75%
    07:00 +23°C° 0 mm 1 m/s 752 mmHg 72%
    08:00 +25°C° 0 mm 2 m/s 752 mmHg 68%
    09:00 +26°C° 0 mm 2 m/s 752 mmHg 64%
    10:00 +27°C° 0 mm 3 m/s 752 mmHg 60%
    11:00 +28°C° 0 mm 3 m/s 752 mmHg 57%
    12:00 +29°C° 0 mm 3 m/s 752 mmHg 53%
    13:00 +29°C° 0 mm 3 m/s 752 mmHg 52%
    14:00 +29°C° 0 mm 3 m/s 752 mmHg 52%
    15:00 +29°C° 0 mm 3 m/s 752 mmHg 52%
    16:00 +28°C° 0 mm 3 m/s 752 mmHg 57%
    17:00 +28°C° 0 mm 2 m/s 752 mmHg 61%
    18:00 +27°C° 0 mm 2 m/s 751 mmHg 66%
    19:00 +26°C° 0 mm 2 m/s 752 mmHg 69%
    20:00 +24°C° 0 mm 2 m/s 752 mmHg 71%
    21:00 +23°C° 0 mm 2 m/s 752 mmHg 73%
    22:00 +21°C° 0 mm 2 m/s 752 mmHg 75%
    23:00 +20°C° 0 mm 2 m/s 752 mmHg 76%

    23 Junho, Domingo

    Tempo Temperatura Precipitação Vento Pressão Humidade
    00:00 +19°C° 0 mm 2 m/s 752 mmHg 78%
    01:00 +19°C° 0 mm 2 m/s 752 mmHg 80%
    02:00 +19°C° 0 mm 2 m/s 752 mmHg 81%
    03:00 +18°C° 0 mm 2 m/s 752 mmHg 83%
    04:00 +19°C° 0 mm 2 m/s 752 mmHg 82%
    05:00 +20°C° 0 mm 2 m/s 752 mmHg 81%
    06:00 +21°C° 0 mm 2 m/s 752 mmHg 80%
    07:00 +24°C° 0 mm 3 m/s 752 mmHg 75%
    08:00 +25°C° 0 mm 3 m/s 752 mmHg 71%
    09:00 +27°C° 0 mm 3 m/s 752 mmHg 66%
    10:00 +28°C° 0 mm 3 m/s 752 mmHg 63%
    11:00 +28°C° 0 mm 4 m/s 752 mmHg 59%
    12:00 +29°C° 0 mm 4 m/s 752 mmHg 56%
    13:00 +30°C° 0 mm 4 m/s 752 mmHg 56%
    14:00 +30°C° 0 mm 4 m/s 751 mmHg 56%
    15:00 +30°C° 0 mm 4 m/s 751 mmHg 56%
    16:00 +30°C° 0.1 mm 3 m/s 751 mmHg 61%
    17:00 +29°C° 0.1 mm 3 m/s 751 mmHg 65%
    18:00 +29°C° 0.1 mm 2 m/s 751 mmHg 70%
    19:00 +27°C° 0 mm 2 m/s 751 mmHg 75%
    20:00 +25°C° 0 mm 1 m/s 751 mmHg 80%
    21:00 +23°C° 0 mm 1 m/s 751 mmHg 86%
    22:00 +23°C° 0 mm 1 m/s 751 mmHg 87%
    23:00 +22°C° 0 mm 1 m/s 751 mmHg 89%

    24 Junho, Segunda-feira

    Tempo Temperatura Precipitação Vento Pressão Humidade
    00:00 +22°C° 0 mm 1 m/s 751 mmHg 91%
    01:00 +22°C° 0 mm 1 m/s 751 mmHg 92%
    02:00 +21°C° 0 mm 1 m/s 751 mmHg 92%
    03:00 +21°C° 0 mm 1 m/s 751 mmHg 93%
    04:00 +22°C° 0 mm 1 m/s 751 mmHg 91%
    05:00 +23°C° 0 mm 1 m/s 752 mmHg 90%
    06:00 +23°C° 0 mm 1 m/s 752 mmHg 88%
    07:00 +25°C° 0 mm 1 m/s 752 mmHg 82%
    08:00 +26°C° 0 mm 1 m/s 752 mmHg 76%
    09:00 +28°C° 0 mm 2 m/s 752 mmHg 71%
    10:00 +28°C° 0.2 mm 2 m/s 751 mmHg 67%
    11:00 +29°C° 0.2 mm 2 m/s 751 mmHg 64%
    12:00 +30°C° 0.2 mm 2 m/s 751 mmHg 60%
    13:00 +30°C° 0.5 mm 2 m/s 751 mmHg 61%
    14:00 +30°C° 0.5 mm 2 m/s 751 mmHg 61%
    15:00 +30°C° 0.5 mm 2 m/s 751 mmHg 62%
    16:00 +29°C° 0.2 mm 2 m/s 750 mmHg 65%
    17:00 +29°C° 0.2 mm 2 m/s 750 mmHg 68%
    18:00 +28°C° 0.2 mm 2 m/s 750 mmHg 71%
    19:00 +27°C° 0 mm 2 m/s 750 mmHg 73%
    20:00 +25°C° 0 mm 1 m/s 750 mmHg 76%
    21:00 +23°C° 0 mm 1 m/s 750 mmHg 78%
    22:00 +23°C° 0 mm 1 m/s 750 mmHg 79%
    23:00 +23°C° 0 mm 1 m/s 749 mmHg 81%
    Mostrar mais